• In Germany
  • List of Countries
  • For 7 days
  • Water Temperature
  • Satellite Maps
  • Weather Map
  • Weather Widgets
  • user-avatar
    Login

    Hourly Weather Mykhailivtsi

    Today, 24 September, Monday

    Time Temperature Precipitation Wind Pressure Humidity
    00:00 +12°C° 0 mm 5 mps 733 mmHg 58%
    01:00 +11°C° 0 mm 6 mps 732 mmHg 60%
    02:00 +11°C° 0 mm 7 mps 731 mmHg 62%
    03:00 +12°C° 0 mm 7 mps 730 mmHg 64%
    04:00 +12°C° 0 mm 7 mps 730 mmHg 66%
    05:00 +12°C° 0 mm 7 mps 729 mmHg 67%
    06:00 +12°C° 0.9 mm 7 mps 729 mmHg 74%
    07:00 +12°C° 0.9 mm 7 mps 729 mmHg 80%
    08:00 +14°C° 0.9 mm 6 mps 729 mmHg 87%
    09:00 +12°C° 1 mm 7 mps 730 mmHg 85%
    10:00 +12°C° 1 mm 8 mps 730 mmHg 83%
    11:00 +12°C° 1 mm 9 mps 731 mmHg 81%
    12:00 +11°C° 0.2 mm 8 mps 732 mmHg 79%
    13:00 +10°C° 0.2 mm 8 mps 732 mmHg 77%
    14:00 +9°C° 0.2 mm 8 mps 733 mmHg 75%
    15:00 +9°C° 0 mm 8 mps 734 mmHg 74%
    16:00 +9°C° 0 mm 7 mps 734 mmHg 72%
    17:00 +9°C° 0 mm 7 mps 734 mmHg 70%
    18:00 +9°C° 0 mm 7 mps 735 mmHg 71%
    19:00 +8°C° 0 mm 7 mps 735 mmHg 71%
    20:00 +8°C° 0 mm 7 mps 735 mmHg 72%
    21:00 +6°C° 0 mm 7 mps 736 mmHg 71%
    22:00 +7°C° 0 mm 6 mps 736 mmHg 71%
    23:00 +5°C° 0 mm 6 mps 736 mmHg 71%

    Tomorrow, 25 September, Tuesday

    Time Temperature Precipitation Wind Pressure Humidity
    00:00 +5°C° 0 mm 6 mps 736 mmHg 72%
    01:00 +4°C° 0 mm 6 mps 737 mmHg 73%
    02:00 +4°C° 0 mm 6 mps 737 mmHg 74%
    03:00 +5°C° 0 mm 7 mps 737 mmHg 74%
    04:00 +5°C° 0 mm 7 mps 737 mmHg 75%
    05:00 +5°C° 0 mm 7 mps 737 mmHg 75%
    06:00 +5°C° 0 mm 8 mps 738 mmHg 73%
    07:00 +5°C° 0 mm 8 mps 739 mmHg 70%
    08:00 +6°C° 0 mm 9 mps 739 mmHg 68%
    09:00 +6°C° 0 mm 9 mps 740 mmHg 63%
    10:00 +7°C° 0 mm 9 mps 741 mmHg 58%
    11:00 +8°C° 0 mm 9 mps 741 mmHg 53%
    12:00 +10°C° 0.1 mm 9 mps 741 mmHg 50%
    13:00 +10°C° 0.1 mm 9 mps 742 mmHg 48%
    14:00 +11°C° 0.1 mm 9 mps 742 mmHg 46%
    15:00 +10°C° 0.1 mm 8 mps 742 mmHg 49%
    16:00 +9°C° 0.1 mm 7 mps 742 mmHg 52%
    17:00 +9°C° 0.1 mm 7 mps 743 mmHg 54%
    18:00 +8°C° 0 mm 6 mps 743 mmHg 59%
    19:00 +7°C° 0 mm 5 mps 744 mmHg 63%
    20:00 +6°C° 0 mm 4 mps 745 mmHg 68%
    21:00 +5°C° 0 mm 4 mps 745 mmHg 70%
    22:00 +5°C° 0 mm 4 mps 745 mmHg 72%
    23:00 +5°C° 0 mm 5 mps 746 mmHg 74%

    Day after tomorrow, 26 September, Wednesday

    Time Temperature Precipitation Wind Pressure Humidity
    00:00 +4°C° 0 mm 4 mps 746 mmHg 76%
    01:00 +4°C° 0 mm 4 mps 747 mmHg 78%
    02:00 +4°C° 0 mm 4 mps 747 mmHg 81%
    03:00 +3°C° 0 mm 4 mps 747 mmHg 83%
    04:00 +3°C° 0 mm 4 mps 747 mmHg 85%
    05:00 +1°C° 0 mm 4 mps 748 mmHg 87%
    06:00 +3°C° 0 mm 4 mps 748 mmHg 82%
    07:00 +3°C° 0 mm 5 mps 749 mmHg 78%
    08:00 +3°C° 0 mm 5 mps 749 mmHg 73%
    09:00 +6°C° 0 mm 5 mps 749 mmHg 64%
    10:00 +7°C° 0 mm 5 mps 750 mmHg 55%
    11:00 +9°C° 0 mm 5 mps 750 mmHg 45%
    12:00 +9°C° 0 mm 5 mps 749 mmHg 44%
    13:00 +10°C° 0 mm 5 mps 749 mmHg 43%
    14:00 +11°C° 0 mm 4 mps 749 mmHg 42%
    15:00 +11°C° 0 mm 4 mps 749 mmHg 44%
    16:00 +11°C° 0 mm 3 mps 748 mmHg 47%
    17:00 +10°C° 0 mm 3 mps 748 mmHg 49%
    18:00 +9°C° 0 mm 2 mps 748 mmHg 54%
    19:00 +8°C° 0 mm 2 mps 748 mmHg 58%
    20:00 +7°C° 0 mm 1 mps 748 mmHg 62%
    21:00 +6°C° 0 mm 2 mps 748 mmHg 63%
    22:00 +6°C° 0 mm 2 mps 748 mmHg 65%
    23:00 +5°C° 0 mm 2 mps 747 mmHg 67%

    27 September, Thursday

    Time Temperature Precipitation Wind Pressure Humidity
    00:00 +5°C° 0 mm 2 mps 747 mmHg 68%
    01:00 +4°C° 0 mm 3 mps 747 mmHg 69%
    02:00 +4°C° 0 mm 3 mps 746 mmHg 69%
    03:00 +4°C° 0 mm 3 mps 746 mmHg 68%
    04:00 +4°C° 0 mm 3 mps 745 mmHg 66%
    05:00 +4°C° 0 mm 4 mps 745 mmHg 64%
    06:00 +5°C° 0 mm 4 mps 745 mmHg 61%
    07:00 +6°C° 0 mm 4 mps 745 mmHg 57%
    08:00 +7°C° 0 mm 4 mps 744 mmHg 54%
    09:00 +8°C° 0 mm 5 mps 744 mmHg 50%
    10:00 +10°C° 0 mm 5 mps 744 mmHg 45%
    11:00 +13°C° 0 mm 6 mps 744 mmHg 41%
    12:00 +14°C° 0 mm 6 mps 743 mmHg 41%
    13:00 +15°C° 0 mm 6 mps 743 mmHg 40%
    14:00 +16°C° 0 mm 6 mps 743 mmHg 40%
    15:00 +16°C° 0 mm 5 mps 742 mmHg 44%
    16:00 +17°C° 0 mm 4 mps 742 mmHg 49%
    17:00 +16°C° 0 mm 3 mps 742 mmHg 54%
    18:00 +14°C° 0 mm 3 mps 742 mmHg 58%
    19:00 +13°C° 0 mm 3 mps 742 mmHg 63%
    20:00 +11°C° 0 mm 3 mps 742 mmHg 68%
    21:00 +11°C° 0 mm 3 mps 742 mmHg 70%
    22:00 +11°C° 0 mm 3 mps 742 mmHg 72%
    23:00 +10°C° 0 mm 3 mps 742 mmHg 75%

    28 September, Friday

    Time Temperature Precipitation Wind Pressure Humidity
    00:00 +10°C° 0 mm 3 mps 741 mmHg 75%
    01:00 +10°C° 0 mm 3 mps 741 mmHg 75%
    02:00 +9°C° 0 mm 3 mps 741 mmHg 76%
    03:00 +9°C° 0 mm 3 mps 740 mmHg 76%
    04:00 +9°C° 0 mm 3 mps 740 mmHg 76%
    05:00 +9°C° 0 mm 3 mps 740 mmHg 76%
    06:00 +10°C° 0 mm 3 mps 740 mmHg 72%
    07:00 +11°C° 0 mm 3 mps 740 mmHg 68%
    08:00 +12°C° 0 mm 3 mps 740 mmHg 64%
    09:00 +14°C° 0 mm 3 mps 740 mmHg 59%
    10:00 +18°C° 0 mm 4 mps 740 mmHg 54%
    11:00 +20°C° 0 mm 4 mps 740 mmHg 50%
    12:00 +20°C° 0 mm 4 mps 739 mmHg 49%
    13:00 +21°C° 0 mm 4 mps 739 mmHg 49%
    14:00 +22°C° 0 mm 4 mps 739 mmHg 48%
    15:00 +21°C° 0 mm 3 mps 739 mmHg 52%
    16:00 +20°C° 0 mm 3 mps 738 mmHg 57%
    17:00 +20°C° 0 mm 2 mps 738 mmHg 61%
    18:00 +18°C° 0 mm 2 mps 738 mmHg 67%
    19:00 +16°C° 0 mm 2 mps 738 mmHg 73%
    20:00 +15°C° 0 mm 2 mps 738 mmHg 79%
    21:00 +15°C° 0 mm 2 mps 738 mmHg 79%
    22:00 +15°C° 0 mm 1 mps 738 mmHg 79%
    23:00 +15°C° 0 mm 1 mps 738 mmHg 78%

    29 September, Saturday

    Time Temperature Precipitation Wind Pressure Humidity
    00:00 +15°C° 0.1 mm 1 mps 738 mmHg 79%
    01:00 +15°C° 0.1 mm 1 mps 738 mmHg 79%
    02:00 +15°C° 0.1 mm 1 mps 738 mmHg 80%
    03:00 +14°C° 0.1 mm 1 mps 738 mmHg 82%
    04:00 +14°C° 0.1 mm 1 mps 738 mmHg 84%
    05:00 +14°C° 0.1 mm 1 mps 738 mmHg 86%
    06:00 +14°C° 0.5 mm 1 mps 738 mmHg 85%
    07:00 +14°C° 0.5 mm 2 mps 738 mmHg 84%
    08:00 +15°C° 0.5 mm 2 mps 738 mmHg 83%
    09:00 +13°C° 1.1 mm 4 mps 738 mmHg 83%
    10:00 +12°C° 1.1 mm 5 mps 739 mmHg 83%
    11:00 +10°C° 1.1 mm 6 mps 739 mmHg 84%
    12:00 +10°C° 0.7 mm 6 mps 739 mmHg 83%
    13:00 +9°C° 0.7 mm 5 mps 740 mmHg 83%
    14:00 +8°C° 0.7 mm 5 mps 740 mmHg 82%
    15:00 +10°C° 0.1 mm 4 mps 741 mmHg 80%
    16:00 +10°C° 0.1 mm 4 mps 741 mmHg 78%
    17:00 +10°C° 0.1 mm 3 mps 741 mmHg 77%
    18:00 +9°C° 0 mm 3 mps 742 mmHg 80%
    19:00 +8°C° 0 mm 2 mps 742 mmHg 84%
    20:00 +7°C° 0 mm 2 mps 743 mmHg 87%
    21:00 +7°C° 0 mm 2 mps 743 mmHg 88%
    22:00 +7°C° 0 mm 2 mps 743 mmHg 89%
    23:00 +6°C° 0 mm 2 mps 743 mmHg 89%
    Show more

    3.3.7123123